Voltar ao catálogo

STARLINK-3937

AtivoComunicaçõesVLEO
NORAD 52542·PAYLOAD·🇺🇸 United States

Lançado May 13, 2022 de Vandenberg Space Force Base

Loading…

Próximas Passagens (próximas 24 horas)

TLE

AtualizadoSource: CelesTrak SupGP

Época: Sep 14, 2026, 22:14 UTC

1 52542C 22051K   26257.92687500 -.00044743  00000+0 -13221-2 0  2578
2 52542  53.1583 343.7094 0001230  82.4088 182.6734 15.34408517    11

Acompanhe STARLINK-3937 em tempo real com AllMySat

Download on the App Store